Location: New Plymouth
(39.0670°S, 174.0830°E)
Time: 21:10:18
(UTC+12:00)

ISS - Pass Details

Date: 22 June 2019
Orbit: 409 x 418 km, 51.6° (Epoch: 24 July)

Event Time Altitude Azimuth Distance (km) Brightness Sun altitude
Rises 18:57:27 0° 321° (NW) 2,368 0.9 -20.4°
Reaches altitude 10° 18:59:34 10° 326° (NW) 1,511 -0.3 -20.8°
Enters shadow 19:02:11 43° 360° (N) 613 -2.9 -21.3°
